Duke Street, Reading, Berkshire, RG1 4RU, United Kingdom

Camera Oscura

Reading Town Centre Webcam

Oscura's Reading Webcam is aimed out of our top floor offices in Duke Street, central Reading town centre, Berkshire. Our camera is facing South West with a view of the Reading Oracle Shopping Centre.

Current weather conditions and forecast for Reading, Berkshire

When Temp Weather Wind Cloud Humidity Rain Snow
Now 5C Cloudy 8mph E 98% 95% 50% 0%
20 Jan 03:00 4C Light Sleet 6mph E 97% 95% 81% 0%
20 Jan 06:00 3C Light Sleet 6mph ENE 96% 94% 50% 0%
20 Jan 09:00 3C Partly Cloudy 4mph ENE 94% 92% 0% 0%
20 Jan 12:00 2C Partly Cloudy 4mph NE 90% 90% 0% 0%
20 Jan 15:00 1C Partly Cloudy 4mph NE 83% 86% 0% 0%
20 Jan 18:00 1C Partly Cloudy 4mph NNE 73% 75% 0% 0%
20 Jan 21:00 2C Partly Cloudy 4mph N 59% 84% 0% 0%
21 Jan 00:00 2C Fair 4mph N 25% 92% 0% 0%
21 Jan 03:00 1C Clear 4mph N 10% 91% 0% 0%
21 Jan 06:00 0C Clear 2mph N 12% 92% 0% 0%
21 Jan 09:00 0C Partly Cloudy 2mph N 41% 94% 0% 0%
21 Jan 12:00 0C Partly Cloudy 0mph N 43% 95% 0% 0%
21 Jan 15:00 0C Partly Cloudy 2mph SSW 53% 83% 0% 0%
21 Jan 18:00 0C Partly Cloudy 6mph SSW 58% 70% 0% 0%
21 Jan 21:00 1C Partly Cloudy 8mph SSW 60% 84% 0% 0%
22 Jan 00:00 3C Partly Cloudy 11mph SSW 85% 87% 0% 0%
22 Jan 03:00 3C Partly Cloudy 15mph S 93% 86% 7% 0%
22 Jan 06:00 4C Light Sleet 22mph SSW 100% 89% 10% 0%
22 Jan 09:00 2C Partly Cloudy 11mph W 96% 81% 20% 0%
22 Jan 13:00 2C Light Sleet 8mph W 99% 88% 20% 0%
22 Jan 16:00 2C Partly Cloudy 11mph WNW 83% 73% 0% 0%
22 Jan 19:00 2C Partly Cloudy 8mph NW 99% 70% 10% 0%
22 Jan 22:00 2C Partly Cloudy 8mph NW 99% 82% 0% 10%
23 Jan 01:00 1C Partly Cloudy 8mph NW 50% 87% 20% 10%


Oscura provide website development, web server hosting, Internet services and IT Support in Reading and the surrounding area.